Location: ????
(33.1659°N, 35.6604°E)
Time: 03:41:08
(UTC+00:00)

Cosmos 1295 Rocket - Pass Details

Date: 20 September 2019
Orbit: 943 x 995 km, 82.9° (Epoch: 19 October)

Event Time Altitude Azimuth Distance (km) Brightness Sun altitude
Rises 17:00:03 0° 355° (N) 3,649 7.7 -17.9°
Reaches altitude 10° 17:02:34 10° 357° (N) 2,692 7.0 -18.5°
Maximum altitude 17:08:43 78° 84° (E) 972 4.3 -19.7°
Drops below altitude 10° 17:14:47 10° 170° (S) 2,653 6.5 -20.9°
Enters shadow 17:15:56 - 171° (S) 3,092 6.9 -21.2°
